| time (UTC) | temp F | wind direction | speed MPH | gust MPH | rain 1hr in | rain 24hr in | rain mn in | humidity % | barometer mb |
| 20260507005005 | 56 | 57 | 0.0 | 1.0 | 0.00 | 0.01 | 0.00 | 88 | 1004.2 |
| 20260507004005 | 56 | 35 | 0.0 | 0.0 | 0.00 | 0.01 | 0.00 | 88 | 1004.2 |
| 20260507003006 | 56 | 22 | 0.0 | 0.0 | 0.00 | 0.01 | 0.00 | 88 | 1004.2 |
| 20260507002005 | 56 | 56 | 0.0 | 0.0 | 0.00 | 0.01 | 0.00 | 87 | 1004.4 |
| 20260507001006 | 56 | 352 | 0.0 | 1.0 | 0.00 | 0.01 | 0.00 | 86 | 1004.4 |
| 20260507000005 | 56 | 28 | 0.0 | 6.0 | 0.00 | 0.01 | 0.00 | 85 | 1004.3 |
| 20260506235005 | 57 | 37 | 2.0 | 7.0 | 0.00 | 0.01 | 0.00 | 85 | 1004.3 |
| 20260506234005 | 57 | 31 | 4.0 | 8.0 | 0.00 | 0.01 | 0.00 | 84 | 1004.3 |
| 20260506233005 | 57 | 22 | 3.0 | 12.0 | 0.00 | 0.01 | 0.00 | 84 | 1004.3 |
| 20260506232005 | 57 | 22 | 7.0 | 9.0 | 0.00 | 0.01 | 0.00 | 84 | 1004.3 |
| 20260506231005 | 57 | 52 | 1.0 | 8.0 | 0.00 | 0.01 | 0.00 | 84 | 1004.4 |
| 20260506230005 | 57 | 44 | 2.0 | 7.0 | 0.00 | 0.01 | 0.00 | 84 | 1004.5 |
| 20260506225005 | 58 | 22 | 5.0 | 9.0 | 0.00 | 0.01 | 0.01 | 83 | 1004.5 |
| 20260506224006 | 58 | 354 | 5.0 | 9.0 | 0.00 | 0.01 | 0.01 | 82 | 1004.5 |
| 20260506223006 | 58 | 22 | 8.0 | 15.0 | 0.00 | 0.01 | 0.01 | 81 | 1004.6 |
| 20260506222005 | 58 | 60 | 7.0 | 10.0 | 0.00 | 0.01 | 0.01 | 81 | 1004.7 |
| 20260506221005 | 58 | 336 | 2.0 | 12.0 | 0.00 | 0.01 | 0.01 | 81 | 1004.7 |
| 20260506220005 | 58 | 2 | 5.0 | 10.0 | 0.00 | 0.01 | 0.01 | 80 | 1004.9 |
| 20260506215006 | 58 | 6 | 6.0 | 10.0 | 0.00 | 0.01 | 0.01 | 80 | 1004.8 |
| 20260506214006 | 58 | 30 | 7.0 | 10.0 | 0.00 | 0.01 | 0.01 | 79 | 1004.8 |
| 20260506212005 | 59 | 8 | 7.0 | 10.0 | 0.00 | 0.01 | 0.01 | 79 | 1004.7 |
| 20260506211006 | 59 | 21 | 5.0 | 9.0 | 0.00 | 0.01 | 0.01 | 78 | 1004.7 |
| 20260506210005 | 59 | 25 | 7.0 | 14.0 | 0.00 | 0.01 | 0.01 | 77 | 1004.6 |
| 20260506205005 | 59 | 351 | 6.0 | 9.0 | 0.01 | 0.01 | 0.01 | 76 | 1004.5 |
| 20260506203005 | 59 | 359 | 0.0 | 6.0 | 0.01 | 0.01 | 0.01 | 73 | 1004.5 |
| 20260506202005 | 60 | 81 | 6.0 | 8.0 | 0.01 | 0.01 | 0.01 | 72 | 1004.3 |
| 20260506201006 | 61 | 359 | 6.0 | 12.0 | 0.01 | 0.01 | 0.01 | 69 | 1004.3 |
| 20260506200005 | 61 | 6 | 10.0 | 14.0 | 0.01 | 0.01 | 0.01 | 66 | 1004.0 |
| 20260506195005 | 61 | 5 | 11.0 | 14.0 | 0.00 | 0.00 | 0.00 | 65 | 1004.1 |
| 20260506194006 | 62 | 335 | 9.0 | 13.0 | 0.00 | 0.00 | 0.00 | 66 | 1004.1 |
| 20260506193005 | 62 | 349 | 9.0 | 16.0 | 0.00 | 0.00 | 0.00 | 64 | 1004.1 |
| 20260506191005 | 64 | 28 | 9.0 | 12.0 | 0.00 | 0.00 | 0.00 | 59 | 1003.7 |
| 20260506190006 | 65 | 100 | 6.0 | 10.0 | 0.00 | 0.00 | 0.00 | 59 | 1003.5 |
| 20260506185005 | 66 | 45 | 6.0 | 9.0 | 0.00 | 0.00 | 0.00 | 56 | 1003.5 |
| 20260506183006 | 67 | 292 | 8.0 | 13.0 | 0.00 | 0.00 | 0.00 | 52 | 1003.5 |
| 20260506182005 | 67 | 303 | 11.0 | 15.0 | 0.00 | 0.00 | 0.00 | 50 | 1003.4 |
| 20260506180006 | 68 | 9 | 11.0 | 14.0 | 0.00 | 0.00 | 0.00 | 48 | 1003.6 |
| 20260506175005 | 68 | 298 | 10.0 | 16.0 | 0.00 | 0.00 | 0.00 | 46 | 1003.7 |
| 20260506174006 | 69 | 324 | 10.0 | 15.0 | 0.00 | 0.00 | 0.00 | 45 | 1003.7 |
| 20260506173005 | 70 | 352 | 10.0 | 14.0 | 0.00 | 0.00 | 0.00 | 46 | 1003.7 |
| 20260506172005 | 70 | 302 | 10.0 | 14.0 | 0.00 | 0.00 | 0.00 | 45 | 1003.8 |
| 20260506171005 | 71 | 10 | 9.0 | 14.0 | 0.00 | 0.00 | 0.00 | 44 | 1003.6 |
| 20260506170005 | 71 | 30 | 12.0 | 14.0 | 0.00 | 0.00 | 0.00 | 44 | 1003.6 |
| 20260506165005 | 72 | 315 | 9.0 | 16.0 | 0.00 | 0.00 | 0.00 | 43 | 1003.6 |
| 20260506164005 | 72 | 353 | 12.0 | 14.0 | 0.00 | 0.00 | 0.00 | 45 | 1003.6 |
| 20260506163005 | 73 | 14 | 7.0 | 15.0 | 0.00 | 0.00 | 0.00 | 43 | 1003.7 |
| 20260506162006 | 74 | 270 | 8.0 | 16.0 | 0.00 | 0.00 | 0.00 | 43 | 1003.8 |
| 20260506161008 | 73 | 327 | 10.0 | 16.0 | 0.00 | 0.00 | 0.00 | 44 | 1003.7 |
| 20260506160005 | 73 | 2 | 10.0 | 18.0 | 0.00 | 0.00 | 0.00 | 45 | 1003.7 |
| 20260506155005 | 74 | 28 | 10.0 | 16.0 | 0.00 | 0.00 | 0.00 | 43 | 1003.6 |
| 20260506153005 | 73 | 304 | 9.0 | 17.0 | 0.00 | 0.00 | 0.00 | 44 | 1003.8 |
| 20260506152005 | 75 | 302 | 8.0 | 13.0 | 0.00 | 0.00 | 0.00 | 41 | 1004.1 |
| 20260506151005 | 74 | 307 | 6.0 | 16.0 | 0.00 | 0.00 | 0.00 | 41 | 1004.1 |
| 20260506150005 | 74 | 13 | 9.0 | 12.0 | 0.00 | 0.00 | 0.00 | 42 | 1004.3 |
| 20260506145008 | 74 | 36 | 7.0 | 10.0 | 0.00 | 0.00 | 0.00 | 39 | 1004.3 |
| 20260506144005 | 74 | 294 | 11.0 | 14.0 | 0.00 | 0.00 | 0.00 | 40 | 1004.3 |
| 20260506143005 | 74 | 321 | 9.0 | 13.0 | 0.00 | 0.00 | 0.00 | 40 | 1004.5 |
| 20260506142006 | 72 | 300 | 7.0 | 16.0 | 0.00 | 0.00 | 0.00 | 41 | 1004.7 |
| 20260506141005 | 75 | 283 | 8.0 | 13.0 | 0.00 | 0.00 | 0.00 | 39 | 1004.9 |
| 20260506140005 | 73 | 321 | 8.0 | 12.0 | 0.00 | 0.00 | 0.00 | 40 | 1004.9 |
| 20260506135005 | 74 | 347 | 5.0 | 10.0 | 0.00 | 0.00 | 0.00 | 41 | 1005.0 |
| 20260506134005 | 78 | 338 | 5.0 | 7.0 | 0.00 | 0.00 | 0.00 | 33 | 1005.1 |
| 20260506132005 | 76 | 344 | 6.0 | 10.0 | 0.00 | 0.00 | 0.00 | 35 | 1005.5 |
| 20260506131005 | 75 | 357 | 9.0 | 14.0 | 0.00 | 0.00 | 0.00 | 37 | 1005.6 |
| 20260506130005 | 72 | 34 | 5.0 | 9.0 | 0.00 | 0.00 | 0.00 | 41 | 1005.6 |
| 20260506124005 | 74 | 304 | 7.0 | 10.0 | 0.00 | 0.00 | 0.00 | 37 | 1005.8 |
| 20260506123005 | 74 | 22 | 4.0 | 10.0 | 0.00 | 0.00 | 0.00 | 38 | 1006.0 |
| 20260506121005 | 70 | 41 | 7.0 | 13.0 | 0.00 | 0.00 | 0.00 | 44 | 1006.1 |
| 20260506114005 | 70 | 349 | 7.0 | 13.0 | 0.00 | 0.00 | 0.00 | 45 | 1006.6 |
| 20260506113004 | 73 | 357 | 5.0 | 10.0 | 0.00 | 0.00 | 0.00 | 42 | 1006.6 |
| 20260506112005 | 73 | 47 | 7.0 | 13.0 | 0.00 | 0.00 | 0.00 | 42 | 1006.6 |
| 20260506111005 | 72 | 356 | 7.0 | 10.0 | 0.00 | 0.00 | 0.00 | 42 | 1006.6 |
| 20260506110004 | 71 | 358 | 9.0 | 10.0 | 0.00 | 0.00 | 0.00 | 45 | 1006.7 |
| 20260506105004 | 72 | 34 | 6.0 | 15.0 | 0.00 | 0.00 | 0.00 | 46 | 1006.7 |
| 20260506104005 | 71 | 51 | 6.0 | 10.0 | 0.00 | 0.00 | 0.00 | 47 | 1006.7 |
| 20260506103004 | 71 | 55 | 6.0 | 9.0 | 0.00 | 0.00 | 0.00 | 48 | 1006.8 |
| 20260506102005 | 70 | 0 | 6.0 | 10.0 | 0.00 | 0.00 | 0.00 | 48 | 1007.0 |
| 20260506101004 | 70 | 1 | 6.0 | 12.0 | 0.00 | 0.00 | 0.00 | 50 | 1007.1 |
| 20260506095005 | 68 | 57 | 9.0 | 12.0 | 0.00 | 0.00 | 0.00 | 52 | 1007.0 |
| 20260506094005 | 68 | 22 | 7.0 | 9.0 | 0.00 | 0.00 | 0.00 | 54 | 1007.0 |
| 20260506093004 | 68 | 23 | 7.0 | 10.0 | 0.00 | 0.00 | 0.00 | 55 | 1007.2 |
| 20260506092005 | 68 | 35 | 4.0 | 6.0 | 0.00 | 0.00 | 0.00 | 60 | 1007.3 |
| 20260506091005 | 67 | 351 | 0.0 | 2.0 | 0.00 | 0.00 | 0.00 | 63 | 1007.3 |
| 20260506090004 | 68 | 32 | 0.0 | 5.0 | 0.00 | 0.00 | 0.00 | 61 | 1007.4 |
| 20260506085004 | 65 | 37 | 2.0 | 7.0 | 0.00 | 0.00 | 0.00 | 64 | 1007.6 |
| 20260506084005 | 65 | 356 | 0.0 | 6.0 | 0.00 | 0.00 | 0.00 | 66 | 1007.7 |
| 20260506083005 | 64 | 58 | 0.0 | 6.0 | 0.00 | 0.00 | 0.00 | 68 | 1007.6 |
| 20260506073005 | 62 | 9 | 0.0 | 0.0 | 0.00 | 0.00 | 0.00 | 71 | 1007.8 |
| 20260506072005 | 63 | 8 | 0.0 | 0.0 | 0.00 | 0.00 | 0.00 | 68 | 1007.7 |
| 20260506071005 | 63 | 298 | 0.0 | 0.0 | 0.00 | 0.00 | 0.00 | 69 | 1007.8 |
| 20260506062005 | 53 | 135 | 0.0 | 0.0 | 0.00 | 0.00 | 0.00 | 95 | 1007.5 |
| 20260506061005 | 51 | 139 | 0.0 | 0.0 | 0.00 | 0.00 | 0.00 | 99 | 1007.4 |
| 20260506045005 | 50 | 147 | 0.0 | 0.0 | 0.00 | 0.00 | 0.00 | 99 | 1007.4 |
| 20260506042006 | 50 | 242 | 0.0 | 0.0 | 0.00 | 0.00 | 0.00 | 99 | 1007.5 |
| 20260506041005 | 50 | 112 | 0.0 | 0.0 | 0.00 | 0.00 | 0.00 | 99 | 1007.6 |
| 20260506035005 | 51 | 135 | 0.0 | 0.0 | 0.00 | 0.00 | 0.00 | 99 | 1007.6 |
| 20260506034006 | 51 | 304 | 0.0 | 1.0 | 0.00 | 0.00 | 0.00 | 99 | 1007.6 |
| 20260506033006 | 51 | 270 | 0.0 | 0.0 | 0.00 | 0.00 | 0.00 | 98 | 1007.6 |
| 20260506032006 | 52 | 259 | 0.0 | 0.0 | 0.00 | 0.00 | 0.00 | 96 | 1007.7 |
| 20260506030005 | 52 | 80 | 0.0 | 1.0 | 0.00 | 0.00 | 0.00 | 97 | 1007.7 |
| 20260506024006 | 52 | 10 | 0.0 | 0.0 | 0.00 | 0.00 | 0.00 | 97 | 1007.9 |
| 20260506023005 | 52 | 44 | 1.0 | 2.0 | 0.00 | 0.00 | 0.00 | 97 | 1008.0 |
| 20260506022006 | 52 | 79 | 0.0 | 0.0 | 0.00 | 0.00 | 0.00 | 97 | 1007.8 |
| 20260506021005 | 52 | 19 | 0.0 | 0.0 | 0.00 | 0.00 | 0.00 | 97 | 1008.0 |
| 20260506020005 | 53 | 22 | 0.0 | 0.0 | 0.00 | 0.00 | 0.00 | 98 | 1008.2 |
| 20260506015005 | 52 | 78 | 0.0 | 0.0 | 0.00 | 0.00 | 0.00 | 98 | 1008.2 |
| 20260506014005 | 52 | 85 | 0.0 | 0.0 | 0.00 | 0.00 | 0.00 | 97 | 1008.3 |
| 20260506013006 | 53 | 0 | 0.0 | 0.0 | 0.00 | 0.00 | 0.00 | 96 | 1008.5 |
| 20260506012005 | 53 | 325 | 0.0 | 0.0 | 0.00 | 0.00 | 0.00 | 95 | 1008.5 |